Orbital Elements
Epoch 2011 July 18.0 TT = JDT 2455760.5
T 2011 Aug. 3.80889 TT MPC
q 0.7478756 (2000.0) P Q
n 0.03529799 Peri. 195.98011 +0.09146314 -0.88487056
a 9.2038479 Node 250.63792 +0.95843442 +0.20270924
e 0.9187432 Incl. 28.95695 +0.27025535 -0.41941991
P 27.9
From 324 observations 1956 Oct. 5-2011 July 25, mean residual 1".1.
Nongravitational parameters A1 = +0.12, A2 = -0.0003.
|